This is the latest recevied weather packets stored in our database for station/object OK2ZA-6. If no packets are shown the sender has not sent any weather packets the latest 10 day(s).
| Time | Temp. | Humidity | Pressure | Rain* | Wind** | Luminosity | Snow |
|---|---|---|---|---|---|---|---|
| 1777654204 | 18.89° C | 40% | 1024.6 hPa | 0 mm | - | - | - |
| 1777653604 | 19.44° C | 39% | 1024.7 hPa | 0 mm | - | - | - |
| 1777653003 | 19.44° C | 39% | 1024.7 hPa | 0 mm | - | - | - |
| 1777652403 | 19.44° C | 38% | 1024.7 hPa | 0 mm | - | - | - |
| 1777651803 | 19.44° C | 39% | 1024.8 hPa | 0 mm | - | - | - |
| 1777651204 | 19.44° C | 38% | 1024.9 hPa | 0 mm | - | - | - |
| 1777650603 | 18.89° C | 39% | 1025.1 hPa | 0 mm | - | - | - |
| 1777650004 | 18.89° C | 40% | 1025.2 hPa | 0 mm | - | - | - |
| 1777649404 | 18.89° C | 40% | 1025.2 hPa | 0 mm | - | - | - |
| 1777648804 | 19.44° C | 39% | 1025.2 hPa | 0 mm | - | - | - |
| 1777648204 | 18.89° C | 40% | 1025.3 hPa | 0 mm | - | - | - |
| 1777647604 | 18.89° C | 40% | 1025.3 hPa | 0 mm | - | - | - |
| 1777647004 | 18.89° C | 39% | 1025.5 hPa | 0 mm | - | - | - |
| 1777646404 | 18.89° C | 38% | 1025.4 hPa | 0 mm | - | - | - |
| 1777645804 | 18.89° C | 39% | 1025.5 hPa | 0 mm | - | - | - |
| 1777645204 | 19.44° C | 39% | 1025.5 hPa | 0 mm | - | - | - |
| 1777644604 | 19.44° C | 37% | 1025.5 hPa | 0 mm | - | - | - |
| 1777644004 | 19.44° C | 38% | 1025.5 hPa | 0 mm | - | - | - |
| 1777643404 | 19.44° C | 36% | 1025.5 hPa | 0 mm | - | - | - |
| 1777642804 | 19.44° C | 37% | 1025.8 hPa | 0 mm | - | - | - |
| 1777642204 | 18.89° C | 37% | 1025.7 hPa | 0 mm | - | - | - |
| 1777641604 | 18.89° C | 40% | 1025.7 hPa | 0 mm | - | - | - |
| 1777641004 | 18.89° C | 37% | 1025.9 hPa | 0 mm | - | - | - |
| 1777640404 | 18.89° C | 36% | 1026.1 hPa | 0 mm | - | - | - |
| 1777639804 | 18.89° C | 39% | 1026.2 hPa | 0 mm | - | - | - |
* Rain latest hour (hover to see other rain measurements)
** Current wind speed in m/s (hover to see current wind gust speed)